| time (UTC) | temp C | wind direction | speed KPH | gust KPH | rain 1hr cm | rain 24hr cm | rain mn cm | humidity % | barometer mb |
| 20260505002446 | 25 | 313 | 11.3 | 14.5 | 0.00 | 0.00 | 0.00 | 26 | 1005.1 |
| 20260505001945 | 25 | 293 | 6.4 | 11.3 | 0.00 | 0.00 | 0.00 | 27 | 1005.2 |
| 20260505001442 | 25 | 291 | 6.4 | 9.7 | 0.00 | 0.00 | 0.00 | 25 | 1004.9 |
| 20260505000939 | 25 | 279 | 8.0 | 9.7 | 0.00 | 0.00 | 0.00 | 27 | 1005.1 |
| 20260505000437 | 25 | 331 | 8.0 | 9.7 | 0.00 | 0.00 | 0.00 | 27 | 1005.1 |
| 20260504235934 | 25 | 328 | 9.7 | 12.9 | 0.00 | 0.00 | 0.00 | 27 | 1004.9 |
| 20260504235431 | 25 | 275 | 3.2 | 4.8 | 0.00 | 0.00 | 0.00 | 27 | 1004.8 |
| 20260504234927 | 25 | 303 | 9.7 | 11.3 | 0.00 | 0.00 | 0.00 | 26 | 1004.9 |
| 20260504234425 | 25 | 294 | 8.0 | 14.5 | 0.00 | 0.00 | 0.00 | 25 | 1004.9 |
| 20260504233921 | 25 | 353 | 8.0 | 9.7 | 0.00 | 0.00 | 0.00 | 26 | 1004.9 |
| 20260504233417 | 25 | 245 | 8.0 | 11.3 | 0.00 | 0.00 | 0.00 | 26 | 1005.2 |
| 20260504232914 | 25 | 7 | 6.4 | 9.7 | 0.00 | 0.00 | 0.00 | 27 | 1004.9 |
| 20260504232411 | 25 | 323 | 9.7 | 14.5 | 0.00 | 0.00 | 0.00 | 24 | 1005.1 |
| 20260504231908 | 25 | 267 | 9.7 | 12.9 | 0.00 | 0.00 | 0.00 | 25 | 1005.1 |
| 20260504231404 | 25 | 165 | 6.4 | 6.4 | 0.00 | 0.00 | 0.00 | 26 | 1005.1 |
| 20260504230901 | 25 | 339 | 6.4 | 9.7 | 0.00 | 0.00 | 0.00 | 25 | 1005.5 |
| 20260504230358 | 25 | 231 | 9.7 | 11.3 | 0.00 | 0.00 | 0.00 | 26 | 1005.2 |
| 20260504225857 | 25 | 129 | 6.4 | 6.4 | 0.00 | 0.00 | 0.00 | 27 | 1005.2 |
| 20260504225353 | 26 | 332 | 9.7 | 12.9 | 0.00 | 0.00 | 0.00 | 26 | 1005.2 |
| 20260504224850 | 25 | 154 | 3.2 | 4.8 | 0.00 | 0.00 | 0.00 | 26 | 1005.6 |
| 20260504224347 | 25 | 250 | 6.4 | 11.3 | 0.00 | 0.00 | 0.00 | 26 | 1005.3 |
| 20260504223844 | 26 | 287 | 9.7 | 12.9 | 0.00 | 0.00 | 0.00 | 25 | 1005.4 |
| 20260504223339 | 26 | 63 | 6.4 | 9.7 | 0.00 | 0.00 | 0.00 | 25 | 1005.4 |
| 20260504222836 | 25 | 190 | 8.0 | 11.3 | 0.00 | 0.00 | 0.00 | 27 | 1005.3 |
| 20260504222333 | 25 | 302 | 11.3 | 14.5 | 0.00 | 0.00 | 0.00 | 25 | 1005.3 |
| 20260504221831 | 25 | 324 | 8.0 | 9.7 | 0.00 | 0.00 | 0.00 | 25 | 1005.4 |
| 20260504221327 | 25 | 289 | 6.4 | 9.7 | 0.00 | 0.00 | 0.00 | 26 | 1005.5 |
| 20260504220825 | 25 | 288 | 8.0 | 11.3 | 0.00 | 0.00 | 0.00 | 24 | 1005.6 |
| 20260504220321 | 25 | 301 | 6.4 | 6.4 | 0.00 | 0.00 | 0.00 | 26 | 1005.6 |
| 20260504215819 | 25 | 280 | 14.5 | 17.7 | 0.00 | 0.00 | 0.00 | 26 | 1005.7 |
| 20260504215315 | 25 | 276 | 8.0 | 12.9 | 0.00 | 0.00 | 0.00 | 26 | 1005.8 |
| 20260504214811 | 25 | 340 | 6.4 | 6.4 | 0.00 | 0.00 | 0.00 | 25 | 1005.7 |
| 20260504214308 | 25 | 310 | 6.4 | 6.4 | 0.00 | 0.00 | 0.00 | 26 | 1005.8 |
| 20260504213805 | 25 | 286 | 16.1 | 22.5 | 0.00 | 0.00 | 0.00 | 23 | 1005.7 |
| 20260504213301 | 25 | 286 | 6.4 | 11.3 | 0.00 | 0.00 | 0.00 | 24 | 1005.7 |
| 20260504212758 | 25 | 319 | 6.4 | 6.4 | 0.00 | 0.00 | 0.00 | 27 | 1005.9 |
| 20260504212254 | 25 | 282 | 6.4 | 11.3 | 0.00 | 0.00 | 0.00 | 25 | 1005.8 |
| 20260504211752 | 25 | 285 | 6.4 | 9.7 | 0.00 | 0.00 | 0.00 | 26 | 1005.9 |
| 20260504211248 | 25 | 163 | 6.4 | 11.3 | 0.00 | 0.00 | 0.00 | 25 | 1005.8 |
| 20260504210746 | 25 | 321 | 14.5 | 22.5 | 0.00 | 0.00 | 0.00 | 27 | 1006.1 |
| 20260504210243 | 25 | 306 | 6.4 | 9.7 | 0.00 | 0.00 | 0.00 | 27 | 1006.0 |
| 20260504205739 | 26 | 303 | 4.8 | 9.7 | 0.00 | 0.00 | 0.00 | 26 | 1006.0 |
| 20260504205237 | 25 | 251 | 6.4 | 6.4 | 0.00 | 0.00 | 0.00 | 28 | 1005.9 |
| 20260504204735 | 25 | 29 | 6.4 | 9.7 | 0.00 | 0.00 | 0.00 | 29 | 1006.0 |
| 20260504204233 | 25 | 301 | 6.4 | 9.7 | 0.00 | 0.00 | 0.00 | 28 | 1005.9 |
| 20260504203732 | 25 | 314 | 4.8 | 6.4 | 0.00 | 0.00 | 0.00 | 29 | 1006.0 |
| 20260504203229 | 26 | 334 | 6.4 | 6.4 | 0.00 | 0.00 | 0.00 | 29 | 1006.0 |
| 20260504202729 | 25 | 254 | 6.4 | 11.3 | 0.00 | 0.00 | 0.00 | 30 | 1005.9 |
| 20260504202227 | 25 | 285 | 6.4 | 6.4 | 0.00 | 0.00 | 0.00 | 30 | 1006.1 |
| 20260504201724 | 26 | 322 | 9.7 | 12.9 | 0.00 | 0.00 | 0.00 | 29 | 1005.9 |
| 20260504201221 | 25 | 83 | 3.2 | 4.8 | 0.00 | 0.00 | 0.00 | 31 | 1005.8 |
| 20260504200719 | 25 | 301 | 14.5 | 16.1 | 0.00 | 0.00 | 0.00 | 30 | 1006.0 |
| 20260504200214 | 25 | 268 | 8.0 | 14.5 | 0.00 | 0.00 | 0.00 | 29 | 1005.8 |
| 20260504195711 | 25 | 311 | 11.3 | 16.1 | 0.00 | 0.00 | 0.00 | 28 | 1005.8 |
| 20260504195207 | 25 | 4 | 6.4 | 6.4 | 0.00 | 0.00 | 0.00 | 31 | 1006.1 |
| 20260504194704 | 25 | 289 | 8.0 | 12.9 | 0.00 | 0.00 | 0.00 | 27 | 1005.8 |
| 20260504194200 | 25 | 277 | 4.8 | 6.4 | 0.00 | 0.00 | 0.00 | 29 | 1005.9 |
| 20260504193656 | 25 | 340 | 12.9 | 16.1 | 0.00 | 0.00 | 0.00 | 30 | 1006.2 |
| 20260504193154 | 25 | 263 | 4.8 | 11.3 | 0.00 | 0.00 | 0.00 | 28 | 1005.8 |
| 20260504192652 | 25 | 188 | 1.6 | 3.2 | 0.00 | 0.00 | 0.00 | 36 | 1006.0 |
| 20260504192150 | 25 | 109 | 1.6 | 1.6 | 0.00 | 0.00 | 0.00 | 39 | 1006.4 |
| 20260504191648 | 25 | 116 | 3.2 | 3.2 | 0.00 | 0.00 | 0.00 | 41 | 1006.1 |
| 20260504191144 | 25 | 148 | 0.0 | 0.0 | 0.00 | 0.00 | 0.00 | 40 | 1006.1 |
| 20260504190640 | 23 | 129 | 0.0 | 1.6 | 0.00 | 0.00 | 0.00 | 42 | 1006.2 |
| 20260504190137 | 23 | 127 | 0.0 | 1.6 | 0.00 | 0.00 | 0.00 | 43 | 1006.5 |
| 20260504185633 | 23 | 133 | 3.2 | 4.8 | 0.00 | 0.00 | 0.00 | 44 | 1006.7 |
| 20260504185130 | 22 | 158 | 1.6 | 1.6 | 0.00 | 0.00 | 0.00 | 43 | 1006.4 |
| 20260504184626 | 22 | 143 | 1.6 | 1.6 | 0.00 | 0.00 | 0.00 | 45 | 1006.5 |
| 20260504184121 | 22 | 142 | 1.6 | 1.6 | 0.00 | 0.00 | 0.00 | 45 | 1006.5 |
| 20260504183619 | 22 | 152 | 6.4 | 6.4 | 0.00 | 0.00 | 0.00 | 47 | 1006.6 |
| 20260504183116 | 22 | 139 | 1.6 | 3.2 | 0.00 | 0.00 | 0.00 | 44 | 1006.7 |
| 20260504182614 | 21 | 158 | 4.8 | 4.8 | 0.00 | 0.00 | 0.00 | 45 | 1006.7 |
| 20260504182111 | 21 | 139 | 3.2 | 3.2 | 0.00 | 0.00 | 0.00 | 46 | 1006.8 |
| 20260504181608 | 21 | 103 | 3.2 | 3.2 | 0.00 | 0.00 | 0.00 | 44 | 1007.0 |
| 20260504181106 | 21 | 130 | 1.6 | 1.6 | 0.00 | 0.00 | 0.00 | 45 | 1006.8 |
| 20260504180605 | 21 | 152 | 4.8 | 4.8 | 0.00 | 0.00 | 0.00 | 45 | 1006.9 |
| 20260504180103 | 20 | 145 | 3.2 | 4.8 | 0.00 | 0.00 | 0.00 | 45 | 1007.0 |
| 20260504175600 | 20 | 130 | 3.2 | 3.2 | 0.00 | 0.00 | 0.00 | 46 | 1007.0 |
| 20260504175057 | 20 | 133 | 3.2 | 4.8 | 0.00 | 0.00 | 0.00 | 48 | 1007.0 |
| 20260504174555 | 20 | 147 | 3.2 | 4.8 | 0.00 | 0.00 | 0.00 | 47 | 1007.0 |
| 20260504174051 | 20 | 130 | 3.2 | 4.8 | 0.00 | 0.00 | 0.00 | 49 | 1006.9 |
| 20260504173548 | 19 | 124 | 4.8 | 4.8 | 0.00 | 0.00 | 0.00 | 49 | 1007.1 |
| 20260504173046 | 19 | 150 | 4.8 | 6.4 | 0.00 | 0.00 | 0.00 | 49 | 1007.0 |
| 20260504172541 | 19 | 124 | 3.2 | 4.8 | 0.00 | 0.00 | 0.00 | 52 | 1007.0 |
| 20260504172038 | 18 | 146 | 3.2 | 4.8 | 0.00 | 0.00 | 0.00 | 51 | 1007.2 |
| 20260504171535 | 18 | 122 | 4.8 | 4.8 | 0.00 | 0.00 | 0.00 | 52 | 1007.3 |
| 20260504171032 | 18 | 135 | 4.8 | 6.4 | 0.00 | 0.00 | 0.00 | 54 | 1007.2 |
| 20260504170527 | 17 | 174 | 4.8 | 6.4 | 0.00 | 0.00 | 0.00 | 55 | 1007.1 |
| 20260504160443 | 14 | 131 | 0.0 | 0.0 | 0.00 | 0.00 | 0.00 | 58 | 1008.1 |
| 20260504150906 | 11 | 114 | 0.0 | 0.0 | 0.00 | 0.00 | 0.00 | 68 | 1008.6 |
| 20260504150403 | 11 | 126 | 0.0 | 0.0 | 0.00 | 0.00 | 0.00 | 71 | 1008.6 |
| 20260504141333 | 7 | 115 | 0.0 | 0.0 | 0.00 | 0.00 | 0.00 | 82 | 1008.4 |
| 20260504140829 | 7 | 116 | 0.0 | 0.0 | 0.00 | 0.00 | 0.00 | 84 | 1008.5 |
| 20260504140325 | 7 | 115 | 0.0 | 0.0 | 0.00 | 0.00 | 0.00 | 83 | 1008.5 |
| 20260504130754 | 3 | 122 | 0.0 | 0.0 | 0.00 | 0.00 | 0.00 | 95 | 1008.2 |
| 20260504130250 | 3 | 133 | 0.0 | 0.0 | 0.00 | 0.00 | 0.00 | 96 | 1008.4 |
| 20260504120214 | 5 | 131 | 0.0 | 0.0 | 0.00 | 0.00 | 0.00 | 93 | 1008.4 |
| 20260504110641 | 4 | 109 | 0.0 | 0.0 | 0.00 | 0.00 | 0.00 | 93 | 1008.5 |
| 20260504110137 | 4 | 116 | 0.0 | 0.0 | 0.00 | 0.00 | 0.00 | 93 | 1008.5 |
| 20260504100557 | 5 | 116 | 0.0 | 0.0 | 0.00 | 0.00 | 0.00 | 92 | 1008.2 |
| 20260504081950 | 6 | 119 | 0.0 | 0.0 | 0.00 | 0.00 | 0.00 | 89 | 1008.6 |
| 20260504081448 | 6 | 119 | 0.0 | 0.0 | 0.00 | 0.00 | 0.00 | 89 | 1008.6 |
| 20260504080943 | 6 | 119 | 0.0 | 0.0 | 0.00 | 0.00 | 0.00 | 88 | 1008.6 |
| 20260504080440 | 6 | 119 | 0.0 | 0.0 | 0.00 | 0.00 | 0.00 | 88 | 1008.7 |
| 20260504070408 | 7 | 119 | 0.0 | 0.0 | 0.00 | 0.00 | 0.00 | 85 | 1008.8 |
| 20260504050749 | 11 | 112 | 0.0 | 0.0 | 0.00 | 0.00 | 0.00 | 72 | 1009.0 |
| 20260504050247 | 11 | 153 | 0.0 | 0.0 | 0.00 | 0.00 | 0.00 | 71 | 1008.6 |
| 20260504045739 | 12 | 155 | 0.0 | 0.0 | 0.00 | 0.00 | 0.00 | 70 | 1008.7 |
| 20260504045233 | 12 | 156 | 0.0 | 0.0 | 0.00 | 0.00 | 0.00 | 69 | 1008.6 |
| 20260504044731 | 12 | 146 | 0.0 | 0.0 | 0.00 | 0.00 | 0.00 | 70 | 1008.8 |
| 20260504044228 | 12 | 145 | 0.0 | 0.0 | 0.00 | 0.00 | 0.00 | 69 | 1008.8 |
| 20260504043725 | 12 | 114 | 0.0 | 0.0 | 0.00 | 0.00 | 0.00 | 68 | 1008.6 |
| 20260504043222 | 12 | 113 | 0.0 | 0.0 | 0.00 | 0.00 | 0.00 | 67 | 1008.6 |
| 20260504042720 | 12 | 110 | 0.0 | 0.0 | 0.00 | 0.00 | 0.00 | 66 | 1008.5 |
| 20260504042216 | 13 | 156 | 0.0 | 0.0 | 0.00 | 0.00 | 0.00 | 65 | 1008.5 |
| 20260504041712 | 13 | 149 | 0.0 | 0.0 | 0.00 | 0.00 | 0.00 | 65 | 1008.5 |
| 20260504041208 | 13 | 153 | 0.0 | 0.0 | 0.00 | 0.00 | 0.00 | 66 | 1008.5 |
| 20260504040705 | 13 | 169 | 0.0 | 1.6 | 0.00 | 0.00 | 0.00 | 63 | 1008.4 |
| 20260504040202 | 13 | 105 | 0.0 | 0.0 | 0.00 | 0.00 | 0.00 | 62 | 1008.2 |
| 20260504035658 | 14 | 148 | 0.0 | 0.0 | 0.00 | 0.00 | 0.00 | 61 | 1008.4 |
| 20260504035155 | 15 | 150 | 0.0 | 0.0 | 0.00 | 0.00 | 0.00 | 60 | 1008.2 |
| 20260504034647 | 15 | 156 | 0.0 | 0.0 | 0.00 | 0.00 | 0.00 | 60 | 1008.5 |
| 20260504034144 | 15 | 147 | 0.0 | 0.0 | 0.00 | 0.00 | 0.00 | 60 | 1008.0 |
| 20260504033642 | 15 | 117 | 0.0 | 0.0 | 0.00 | 0.00 | 0.00 | 61 | 1008.3 |
| 20260504033139 | 15 | 115 | 0.0 | 0.0 | 0.00 | 0.00 | 0.00 | 58 | 1008.1 |
| 20260504032635 | 15 | 122 | 0.0 | 0.0 | 0.00 | 0.00 | 0.00 | 57 | 1008.0 |
| 20260504032133 | 16 | 168 | 0.0 | 0.0 | 0.00 | 0.00 | 0.00 | 56 | 1008.0 |
| 20260504031630 | 16 | 179 | 1.6 | 1.6 | 0.00 | 0.00 | 0.00 | 55 | 1008.1 |
| 20260504031126 | 16 | 139 | 0.0 | 0.0 | 0.00 | 0.00 | 0.00 | 54 | 1007.9 |
| 20260504030623 | 17 | 125 | 0.0 | 0.0 | 0.00 | 0.00 | 0.00 | 52 | 1008.1 |
| 20260504030120 | 17 | 118 | 0.0 | 0.0 | 0.00 | 0.00 | 0.00 | 50 | 1007.9 |
| 20260504025617 | 18 | 130 | 0.0 | 0.0 | 0.00 | 0.00 | 0.00 | 47 | 1008.0 |
| 20260504025113 | 18 | 145 | 0.0 | 0.0 | 0.00 | 0.00 | 0.00 | 48 | 1008.1 |
| 20260504024611 | 18 | 52 | 1.6 | 3.2 | 0.00 | 0.00 | 0.00 | 44 | 1008.0 |
| 20260504024107 | 19 | 87 | 1.6 | 1.6 | 0.00 | 0.00 | 0.00 | 44 | 1007.8 |
| 20260504023604 | 20 | 93 | 0.0 | 0.0 | 0.00 | 0.00 | 0.00 | 42 | 1007.9 |
| 20260504023100 | 21 | 154 | 1.6 | 1.6 | 0.00 | 0.00 | 0.00 | 39 | 1008.0 |
| 20260504022556 | 21 | 337 | 3.2 | 4.8 | 0.00 | 0.00 | 0.00 | 37 | 1007.8 |
| 20260504022052 | 22 | 246 | 1.6 | 3.2 | 0.00 | 0.00 | 0.00 | 37 | 1007.8 |
| 20260504021550 | 22 | 284 | 3.2 | 3.2 | 0.00 | 0.00 | 0.00 | 38 | 1007.7 |
| 20260504021047 | 22 | 147 | 1.6 | 1.6 | 0.00 | 0.00 | 0.00 | 36 | 1007.8 |
| 20260504020544 | 22 | 132 | 1.6 | 1.6 | 0.00 | 0.00 | 0.00 | 35 | 1007.8 |
| 20260504020040 | 23 | 104 | 1.6 | 3.2 | 0.00 | 0.00 | 0.00 | 36 | 1008.0 |
| 20260504015537 | 23 | 100 | 1.6 | 1.6 | 0.00 | 0.00 | 0.00 | 36 | 1008.0 |
| 20260504015032 | 23 | 153 | 1.6 | 1.6 | 0.00 | 0.00 | 0.00 | 35 | 1008.0 |
| 20260504014529 | 23 | 172 | 3.2 | 3.2 | 0.00 | 0.00 | 0.00 | 35 | 1008.0 |
| 20260504014026 | 24 | 166 | 1.6 | 1.6 | 0.00 | 0.00 | 0.00 | 34 | 1007.9 |
| 20260504013524 | 23 | 12 | 3.2 | 3.2 | 0.00 | 0.00 | 0.00 | 34 | 1007.8 |
| 20260504013021 | 23 | 204 | 3.2 | 4.8 | 0.00 | 0.00 | 0.00 | 33 | 1008.0 |
| 20260504012518 | 24 | 299 | 4.8 | 4.8 | 0.00 | 0.00 | 0.00 | 33 | 1008.0 |
| 20260504012016 | 24 | 253 | 4.8 | 4.8 | 0.00 | 0.00 | 0.00 | 32 | 1008.1 |
| 20260504011512 | 24 | 282 | 4.8 | 6.4 | 0.00 | 0.00 | 0.00 | 33 | 1007.9 |
| 20260504011008 | 24 | 249 | 1.6 | 4.8 | 0.00 | 0.00 | 0.00 | 32 | 1007.9 |
| 20260504010504 | 25 | 322 | 4.8 | 4.8 | 0.00 | 0.00 | 0.00 | 31 | 1007.9 |
| 20260504010000 | 25 | 274 | 8.0 | 9.7 | 0.00 | 0.00 | 0.00 | 31 | 1008.0 |
| 20260504005457 | 25 | 299 | 9.7 | 11.3 | 0.00 | 0.00 | 0.00 | 31 | 1008.2 |
| 20260504004954 | 25 | 14 | 4.8 | 4.8 | 0.00 | 0.00 | 0.00 | 31 | 1008.1 |
| 20260504004452 | 25 | 316 | 14.5 | 17.7 | 0.00 | 0.00 | 0.00 | 29 | 1008.4 |
| 20260504003949 | 25 | 78 | 6.4 | 6.4 | 0.00 | 0.00 | 0.00 | 31 | 1008.2 |
| 20260504003445 | 25 | 273 | 11.3 | 14.5 | 0.00 | 0.00 | 0.00 | 29 | 1008.2 |
| 20260504002942 | 25 | 187 | 1.6 | 3.2 | 0.00 | 0.00 | 0.00 | 30 | 1008.3 |